OBJECT C, 52155

Orbit data source: Space-Track

You're viewing an Uncataloged Satellite

Recently launched and/or uncataloged satellites may have evolving metadata. Metadata may include but not limited to: Owner, Maufacturer, Bus, Motor, and Mission.

OBJECT C, 52155 is a satellite owned by ZJUNI-SAT (CN) in SSO that was launched on Wed, 30 Mar 2022 UTC via a CHANG ZHENG 11 launch vehicle from the Jiuquan Satellite Launch Center, China (JSC). Unknown objects in Earth's orbit typically refer to objects detected orbiting the Earth but have not yet been identified or cataloged. These objects could be anything from previously untracked satellites, spent rocket stages, debris from satellite collisions, or even natural meteoroids temporarily captured by Earth's gravity.

Loading next visibility...
Identifier
52155, 2022-032C
Orbit
SSO
Country
Flag of CNCN / PRC
Related business
Manufacturer
ZJUNI-SAT
Mission
Operational Defense Calibration
Bus & Motor
TP-2, Unknown motor
Mass
30 kg wet, ~30 kg dry
Launch date (UTC)
2022-03-30 (4 years ago)
Launch vehicle
CHANG ZHENG 11
Launch site
Jiuquan Satellite Launch Center, China (JSC)
Object type
Unknown
Shape & HBR
Box + 2 Pan, 0.3 m
Radar Cross Section
0.162 m², Medium (>0.1 m² and < 1m²)

Expand to show TLE details & history
Last TLE update: 21 hours ago

TLE from 21 hours ago
0 OBJECT C
1 52155U 22032C   26172.56031302  .00001335  00000-0  10682-3 0  9997
2 52155  97.5802 217.7202 0023669 147.6096 212.6587 15.01653802230930
Epoch: 2026-06-21T13:26Z
TLE epoch observation values (Epoch: 2026-06-21T13:26:51.044Z)
Latitude
-0.00008°
Longitude
106.2487°
Altitude
578.7 km
Speed
7.564 km/s
True Right ascension
14h 30m 52s
True Declination
0° 00' 00"
Sunlit
Object was in full shadow at epoch
Visualization orbit readout
Latitude
Unknown
Longitude
Unknown
Altitude
Unknown
Speed
Unknown
Apparent Right ascension
Unknown
Apparent Declination
Unknown
Sunlit
N/A
Visualization observer readout
Local Sidereal Time
21:24:57
Azimuth
Unknown
Elevation
Unknown
Doppler factor
Unknown
Orbital elements
Apogee altitude
575.213 km
Perigee altitude
542.375 km
Semi-major axis
6,936.931 km
Eccentricity
0.00237
Inclination
97.5802°
RAAN
217.7202°
Arg. of periapsis
147.6096°
True anomaly
212.5127°
Mean anomaly
212.6587°
Eccentric anomaly
212.58566°
Mean motion
3.75658 °/min
Orbital period
95.83 mins
BSTAR
0.00010682
Loading maneuver chart data...
Computing Atmospheric mass density...
Loading historical data...
Loading historical data...
Loading historical data...
Loading historical data...
Loading historical data...
Loading historical data...
Loading historical data...
Other satellites on launch #32 in the year 2022 (2022-03-30 UTC)

Documentation

Showing up to 5 results
|